Year,Month,Day,Hour,Minute,Value (Times are PST for temperature in C)
2016,06,17,00,00,11.10
2016,06,17,00,01,11.10
2016,06,17,00,02,11.10
2016,06,17,00,03,11.10
2016,06,17,00,04,11.10
2016,06,17,00,05,11.10
2016,06,17,00,06,11.10
2016,06,17,00,07,11.10
2016,06,17,00,08,11.10
2016,06,17,00,09,11.10
2016,06,17,00,10,11.10
2016,06,17,00,11,11.10
2016,06,17,00,12,11.10
2016,06,17,00,13,11.10
2016,06,17,00,14,11.00
2016,06,17,00,15,10.90
2016,06,17,00,16,10.90
2016,06,17,00,17,10.90
2016,06,17,00,18,10.90
2016,06,17,00,19,10.90
2016,06,17,00,20,10.90
2016,06,17,00,21,10.90
2016,06,17,00,22,10.90
2016,06,17,00,23,10.90
2016,06,17,00,24,10.90
2016,06,17,00,25,10.90
2016,06,17,00,26,10.90
2016,06,17,00,27,11.00
2016,06,17,00,28,11.10
2016,06,17,00,29,11.10
2016,06,17,00,30,11.20
2016,06,17,00,31,11.20
2016,06,17,00,32,11.20
2016,06,17,00,33,11.20
2016,06,17,00,34,11.20
2016,06,17,00,35,11.20
2016,06,17,00,36,11.20
2016,06,17,00,37,11.20
2016,06,17,00,38,11.20
2016,06,17,00,39,11.10
2016,06,17,00,40,11.10
2016,06,17,00,41,10.90
2016,06,17,00,42,10.80
2016,06,17,00,43,10.70
2016,06,17,00,44,10.60
2016,06,17,00,45,10.40
2016,06,17,00,46,10.30
2016,06,17,00,47,10.20
2016,06,17,00,48,10.10
2016,06,17,00,49,10.00
2016,06,17,00,50,9.90
2016,06,17,00,51,9.80
2016,06,17,00,52,9.70
2016,06,17,00,53,9.70
2016,06,17,00,54,9.70
2016,06,17,00,55,9.60
2016,06,17,00,56,9.60
2016,06,17,00,57,9.50
2016,06,17,00,58,9.50
2016,06,17,00,59,9.50
2016,06,17,01,00,9.50
2016,06,17,01,01,9.40
2016,06,17,01,02,9.40
2016,06,17,01,03,9.30
2016,06,17,01,04,9.30
2016,06,17,01,05,9.20
2016,06,17,01,06,9.20
2016,06,17,01,07,9.10
2016,06,17,01,08,9.10
2016,06,17,01,09,9.00
2016,06,17,01,10,9.00
2016,06,17,01,11,9.00
2016,06,17,01,12,8.90
2016,06,17,01,13,8.90
2016,06,17,01,14,8.90
2016,06,17,01,15,8.80
2016,06,17,01,16,8.80
2016,06,17,01,17,8.70
2016,06,17,01,18,8.70
2016,06,17,01,19,8.70
2016,06,17,01,20,8.70
2016,06,17,01,21,8.70
2016,06,17,01,22,8.70
2016,06,17,01,23,8.70
2016,06,17,01,24,8.70
2016,06,17,01,25,8.60
2016,06,17,01,26,8.60
2016,06,17,01,27,8.60
2016,06,17,01,28,8.60
2016,06,17,01,29,8.50
2016,06,17,01,30,8.50
2016,06,17,01,31,8.50
2016,06,17,01,32,8.40
2016,06,17,01,33,8.40
2016,06,17,01,34,8.40
2016,06,17,01,35,8.30
2016,06,17,01,36,8.30
2016,06,17,01,37,8.30
2016,06,17,01,38,8.20
2016,06,17,01,39,8.20
2016,06,17,01,40,8.20
2016,06,17,01,41,8.20
2016,06,17,01,42,8.20
2016,06,17,01,43,8.20
2016,06,17,01,44,8.20
2016,06,17,01,45,8.20
2016,06,17,01,46,8.10
2016,06,17,01,47,8.10
2016,06,17,01,48,8.10
2016,06,17,01,49,8.10
2016,06,17,01,50,8.10
2016,06,17,01,51,8.10
2016,06,17,01,52,8.10
2016,06,17,01,53,8.10
2016,06,17,01,54,8.10
2016,06,17,01,55,8.10
2016,06,17,01,56,8.10
2016,06,17,01,57,8.10
2016,06,17,01,58,8.10
2016,06,17,01,59,8.10
2016,06,17,02,00,8.10
2016,06,17,02,01,8.10
2016,06,17,02,02,8.10
2016,06,17,02,03,8.10
2016,06,17,02,04,8.20
2016,06,17,02,05,8.20
2016,06,17,02,06,8.20
2016,06,17,02,07,8.20
2016,06,17,02,08,8.20
2016,06,17,02,09,8.20
2016,06,17,02,10,8.20
2016,06,17,02,11,8.20
2016,06,17,02,12,8.20
2016,06,17,02,13,8.20
2016,06,17,02,14,8.20
2016,06,17,02,15,8.20
2016,06,17,02,16,8.20
2016,06,17,02,17,8.20
2016,06,17,02,18,8.20
2016,06,17,02,19,8.20
2016,06,17,02,20,8.20
2016,06,17,02,21,8.20
2016,06,17,02,22,8.20
2016,06,17,02,23,8.20
2016,06,17,02,24,8.20
2016,06,17,02,25,8.20
2016,06,17,02,26,8.20
2016,06,17,02,27,8.20
2016,06,17,02,28,8.20
2016,06,17,02,29,8.20
2016,06,17,02,30,8.20
2016,06,17,02,31,8.20
2016,06,17,02,32,8.20
2016,06,17,02,33,8.20
2016,06,17,02,34,8.20
2016,06,17,02,35,8.20
2016,06,17,02,36,8.20
2016,06,17,02,37,8.20
2016,06,17,02,38,8.10
2016,06,17,02,39,8.10
2016,06,17,02,40,8.10
2016,06,17,02,41,8.00
2016,06,17,02,42,8.00
2016,06,17,02,43,8.00
2016,06,17,02,44,8.00
2016,06,17,02,45,8.00
2016,06,17,02,46,8.00
2016,06,17,02,47,7.90
2016,06,17,02,48,7.90
2016,06,17,02,49,7.90
2016,06,17,02,50,7.90
2016,06,17,02,51,7.90
2016,06,17,02,52,7.90
2016,06,17,02,53,7.90
2016,06,17,02,54,7.90
2016,06,17,02,55,8.00
2016,06,17,02,56,8.00
2016,06,17,02,57,8.00
2016,06,17,02,58,8.00
2016,06,17,02,59,8.00
2016,06,17,03,00,8.00
2016,06,17,03,01,8.00
2016,06,17,03,02,8.00
2016,06,17,03,03,8.00
2016,06,17,03,04,8.00
2016,06,17,03,05,7.90
2016,06,17,03,06,7.90
2016,06,17,03,07,7.90
2016,06,17,03,08,7.90
2016,06,17,03,09,7.90
2016,06,17,03,10,7.90
2016,06,17,03,11,7.90
2016,06,17,03,12,7.90
2016,06,17,03,13,7.90
2016,06,17,03,14,8.00
2016,06,17,03,15,8.00
2016,06,17,03,16,8.00
2016,06,17,03,17,8.00
2016,06,17,03,18,7.90
2016,06,17,03,19,7.90
2016,06,17,03,20,7.90
2016,06,17,03,21,7.80
2016,06,17,03,22,7.80
2016,06,17,03,23,7.80
2016,06,17,03,24,7.80
2016,06,17,03,25,7.80
2016,06,17,03,26,7.80
2016,06,17,03,27,7.80
2016,06,17,03,28,7.80
2016,06,17,03,29,7.80
2016,06,17,03,30,7.80
2016,06,17,03,31,7.80
2016,06,17,03,32,7.90
2016,06,17,03,33,7.90
2016,06,17,03,34,8.00
2016,06,17,03,35,8.00
2016,06,17,03,36,8.10
2016,06,17,03,37,8.20
2016,06,17,03,38,8.20
2016,06,17,03,39,8.20
2016,06,17,03,40,8.20
2016,06,17,03,41,8.20
2016,06,17,03,42,8.20
2016,06,17,03,43,8.30
2016,06,17,03,44,8.30
2016,06,17,03,45,8.30
2016,06,17,03,46,8.30
2016,06,17,03,47,8.30
2016,06,17,03,48,8.30
2016,06,17,03,49,8.30
2016,06,17,03,50,8.30
2016,06,17,03,51,8.40
2016,06,17,03,52,8.40
2016,06,17,03,53,8.40
2016,06,17,03,54,8.40
2016,06,17,03,55,8.40
2016,06,17,03,56,8.40
2016,06,17,03,57,8.50
2016,06,17,03,58,8.50
2016,06,17,03,59,8.50
2016,06,17,04,00,8.50
2016,06,17,04,01,8.50
2016,06,17,04,02,8.50
2016,06,17,04,03,8.50
2016,06,17,04,04,8.50
2016,06,17,04,05,8.50
2016,06,17,04,06,8.50
2016,06,17,04,07,8.50
2016,06,17,04,08,8.50
2016,06,17,04,09,8.50
2016,06,17,04,10,8.40
2016,06,17,04,11,8.40
2016,06,17,04,12,8.40
2016,06,17,04,13,8.40
2016,06,17,04,14,8.40
2016,06,17,04,15,8.40
2016,06,17,04,16,8.40
2016,06,17,04,17,8.40
2016,06,17,04,18,8.40
2016,06,17,04,19,8.40
2016,06,17,04,20,8.40
2016,06,17,04,21,8.40
2016,06,17,04,22,8.30
2016,06,17,04,23,8.30
2016,06,17,04,24,8.20
2016,06,17,04,25,8.20
2016,06,17,04,26,8.10
2016,06,17,04,27,8.00
2016,06,17,04,28,8.00
2016,06,17,04,29,8.00
2016,06,17,04,30,7.90
2016,06,17,04,31,7.90
2016,06,17,04,32,7.80
2016,06,17,04,33,7.80
2016,06,17,04,34,7.80
2016,06,17,04,35,7.70
2016,06,17,04,36,7.60
2016,06,17,04,37,7.50
2016,06,17,04,38,7.50
2016,06,17,04,39,7.40
2016,06,17,04,40,7.30
2016,06,17,04,41,7.30
2016,06,17,04,42,7.30
2016,06,17,04,43,7.30
2016,06,17,04,44,7.20
2016,06,17,04,45,7.20
2016,06,17,04,46,7.20
2016,06,17,04,47,7.30
2016,06,17,04,48,7.20
2016,06,17,04,49,7.20
2016,06,17,04,50,7.10
2016,06,17,04,51,7.10
2016,06,17,04,52,7.10
2016,06,17,04,53,7.10
2016,06,17,04,54,7.00
2016,06,17,04,55,7.00
2016,06,17,04,56,6.90
2016,06,17,04,57,6.90
2016,06,17,04,58,6.80
2016,06,17,04,59,6.80
2016,06,17,05,00,6.80
2016,06,17,05,01,6.80
2016,06,17,05,02,6.70
2016,06,17,05,03,6.70
2016,06,17,05,04,6.60
2016,06,17,05,05,6.60
2016,06,17,05,06,6.60
2016,06,17,05,07,6.60
2016,06,17,05,08,6.50
2016,06,17,05,09,6.40
2016,06,17,05,10,6.40
2016,06,17,05,11,6.40
2016,06,17,05,12,6.40
2016,06,17,05,13,6.40
2016,06,17,05,14,6.40
2016,06,17,05,15,6.40
2016,06,17,05,16,6.40
2016,06,17,05,17,6.40
2016,06,17,05,18,6.40
2016,06,17,05,19,6.40
2016,06,17,05,20,6.40
2016,06,17,05,21,6.30
2016,06,17,05,22,6.30
2016,06,17,05,23,6.30
2016,06,17,05,24,6.30
2016,06,17,05,25,6.40
2016,06,17,05,26,6.40
2016,06,17,05,27,6.40
2016,06,17,05,28,6.40
2016,06,17,05,29,6.40
2016,06,17,05,30,6.50
2016,06,17,05,31,6.60
2016,06,17,05,32,6.60
2016,06,17,05,33,6.60
2016,06,17,05,34,6.70
2016,06,17,05,35,6.70
2016,06,17,05,36,6.70
2016,06,17,05,37,6.80
2016,06,17,05,38,6.80
2016,06,17,05,39,6.80
2016,06,17,05,40,6.90
2016,06,17,05,41,6.90
2016,06,17,05,42,6.90
2016,06,17,05,43,7.00
2016,06,17,05,44,7.00
2016,06,17,05,45,7.10
2016,06,17,05,46,7.10
2016,06,17,05,47,7.10
2016,06,17,05,48,7.20
2016,06,17,05,49,7.20
2016,06,17,05,50,7.20
2016,06,17,05,51,7.30
2016,06,17,05,52,7.30
2016,06,17,05,53,7.30
2016,06,17,05,54,7.40
2016,06,17,05,55,7.50
2016,06,17,05,56,7.50
2016,06,17,05,57,7.50
2016,06,17,05,58,7.50
2016,06,17,05,59,7.60
2016,06,17,06,00,7.60
2016,06,17,06,01,7.60
2016,06,17,06,02,7.70
2016,06,17,06,03,7.70
2016,06,17,06,04,7.80
2016,06,17,06,05,7.80
2016,06,17,06,06,7.80
2016,06,17,06,07,7.90
2016,06,17,06,08,7.90
2016,06,17,06,09,7.90
2016,06,17,06,10,8.00
2016,06,17,06,11,8.00
2016,06,17,06,12,8.10
2016,06,17,06,13,8.10
2016,06,17,06,14,8.20
2016,06,17,06,15,8.20
2016,06,17,06,16,8.30
2016,06,17,06,17,8.40
2016,06,17,06,18,8.40
2016,06,17,06,19,8.50
2016,06,17,06,20,8.60
2016,06,17,06,21,8.60
2016,06,17,06,22,8.50
2016,06,17,06,23,8.50
2016,06,17,06,24,8.50
2016,06,17,06,25,8.50
2016,06,17,06,26,8.60
2016,06,17,06,27,8.60
2016,06,17,06,28,8.60
2016,06,17,06,29,8.70
2016,06,17,06,30,8.70
2016,06,17,06,31,8.80
2016,06,17,06,32,8.90
2016,06,17,06,33,9.00
2016,06,17,06,34,9.10
2016,06,17,06,35,9.20
2016,06,17,06,36,9.30
2016,06,17,06,37,9.40
2016,06,17,06,38,9.50
2016,06,17,06,39,9.60
2016,06,17,06,40,9.70
2016,06,17,06,41,9.80
2016,06,17,06,42,9.90
2016,06,17,06,43,10.00
2016,06,17,06,44,10.10
2016,06,17,06,45,10.10
2016,06,17,06,46,10.20
2016,06,17,06,47,10.30
2016,06,17,06,48,10.30
2016,06,17,06,49,10.40
2016,06,17,06,50,10.50
2016,06,17,06,51,10.60
2016,06,17,06,52,10.60
2016,06,17,06,53,10.70
2016,06,17,06,54,10.80
2016,06,17,06,55,10.90
2016,06,17,06,56,10.90
2016,06,17,06,57,11.00
2016,06,17,06,58,11.10
2016,06,17,06,59,11.20
2016,06,17,07,00,11.30
2016,06,17,07,01,11.40
2016,06,17,07,02,11.50
2016,06,17,07,03,11.60
2016,06,17,07,04,11.70
2016,06,17,07,05,11.70
2016,06,17,07,06,11.80
2016,06,17,07,07,11.80
2016,06,17,07,08,11.90
2016,06,17,07,09,12.00
2016,06,17,07,10,12.00
2016,06,17,07,11,12.10
2016,06,17,07,12,12.20
2016,06,17,07,13,12.30
2016,06,17,07,14,12.30
2016,06,17,07,15,12.30
2016,06,17,07,16,12.40
2016,06,17,07,17,12.40
2016,06,17,07,18,12.40
2016,06,17,07,19,12.50
2016,06,17,07,20,12.60
2016,06,17,07,21,12.70
2016,06,17,07,22,12.80
2016,06,17,07,23,12.90
2016,06,17,07,24,13.10
2016,06,17,07,25,13.20
2016,06,17,07,26,13.30
2016,06,17,07,27,13.50
2016,06,17,07,28,13.60
2016,06,17,07,29,13.70
2016,06,17,07,30,13.70
2016,06,17,07,31,13.80
2016,06,17,07,32,13.90
2016,06,17,07,33,14.00
2016,06,17,07,34,14.00
2016,06,17,07,35,14.20
2016,06,17,07,36,14.20
2016,06,17,07,37,14.30
2016,06,17,07,38,14.40
2016,06,17,07,39,14.50
2016,06,17,07,40,14.50
2016,06,17,07,41,14.60
2016,06,17,07,42,14.70
2016,06,17,07,43,14.80
2016,06,17,07,44,14.80
2016,06,17,07,45,14.90
2016,06,17,07,46,15.00
2016,06,17,07,47,15.00
2016,06,17,07,48,15.10
2016,06,17,07,49,15.10
2016,06,17,07,50,15.20
2016,06,17,07,51,15.20
2016,06,17,07,52,15.30
2016,06,17,07,53,15.30
2016,06,17,07,54,15.30
2016,06,17,07,55,15.30
2016,06,17,07,56,15.30
2016,06,17,07,57,15.20
2016,06,17,07,58,15.10
2016,06,17,07,59,15.10
2016,06,17,08,00,15.00
2016,06,17,08,01,15.00
2016,06,17,08,02,15.00
2016,06,17,08,03,15.10
2016,06,17,08,04,15.10
2016,06,17,08,05,15.10
2016,06,17,08,06,15.10
2016,06,17,08,07,15.00
2016,06,17,08,08,14.90
2016,06,17,08,09,14.80
2016,06,17,08,10,14.80
2016,06,17,08,11,14.90
2016,06,17,08,12,15.00
2016,06,17,08,13,15.10
2016,06,17,08,14,15.10
2016,06,17,08,15,15.10
2016,06,17,08,16,15.10
2016,06,17,08,17,15.20
2016,06,17,08,18,15.10
2016,06,17,08,19,15.10
2016,06,17,08,20,15.10
2016,06,17,08,21,15.10
2016,06,17,08,22,15.20
2016,06,17,08,23,15.20
2016,06,17,08,24,15.30
2016,06,17,08,25,15.40
2016,06,17,08,26,15.40
2016,06,17,08,27,15.40
2016,06,17,08,28,15.40
2016,06,17,08,29,15.50
2016,06,17,08,30,15.50
2016,06,17,08,31,15.50
2016,06,17,08,32,15.50
2016,06,17,08,33,15.50
2016,06,17,08,34,15.40
2016,06,17,08,35,15.40
2016,06,17,08,36,15.40
2016,06,17,08,37,15.50
2016,06,17,08,38,15.50
2016,06,17,08,39,15.60
2016,06,17,08,40,15.60
2016,06,17,08,41,15.60
2016,06,17,08,42,15.60
2016,06,17,08,43,15.60
2016,06,17,08,44,15.70
2016,06,17,08,45,15.70
2016,06,17,08,46,15.60
2016,06,17,08,47,15.60
2016,06,17,08,48,15.60
2016,06,17,08,49,15.50
2016,06,17,08,50,15.50
2016,06,17,08,51,15.30
2016,06,17,08,52,15.40
2016,06,17,08,53,15.30
2016,06,17,08,54,15.30
2016,06,17,08,55,15.40
2016,06,17,08,56,15.40
2016,06,17,08,57,15.40
2016,06,17,08,58,15.40
2016,06,17,08,59,15.30
2016,06,17,09,00,15.40
2016,06,17,09,01,15.50
2016,06,17,09,02,15.70
2016,06,17,09,03,15.80
2016,06,17,09,04,15.80
2016,06,17,09,05,15.80
2016,06,17,09,06,15.80
2016,06,17,09,07,15.70
2016,06,17,09,08,15.70
2016,06,17,09,09,15.80
2016,06,17,09,10,15.90
2016,06,17,09,11,16.10
2016,06,17,09,12,16.10
2016,06,17,09,13,16.30
2016,06,17,09,14,16.40
2016,06,17,09,15,16.50
2016,06,17,09,16,16.60
2016,06,17,09,17,16.70
2016,06,17,09,18,16.80
2016,06,17,09,19,16.80
2016,06,17,09,20,16.80
2016,06,17,09,21,16.80
2016,06,17,09,22,16.90
2016,06,17,09,23,16.90
2016,06,17,09,24,16.90
2016,06,17,09,25,16.90
2016,06,17,09,26,17.00
2016,06,17,09,27,17.00
2016,06,17,09,28,17.00
2016,06,17,09,29,16.90
2016,06,17,09,30,16.90
2016,06,17,09,31,16.80
2016,06,17,09,32,16.70
2016,06,17,09,33,16.70
2016,06,17,09,34,16.50
2016,06,17,09,35,16.50
2016,06,17,09,36,16.60
2016,06,17,09,37,16.70
2016,06,17,09,38,16.70
2016,06,17,09,39,16.70
2016,06,17,09,40,16.60
2016,06,17,09,41,16.50
2016,06,17,09,42,16.40
2016,06,17,09,43,16.40
2016,06,17,09,44,16.30
2016,06,17,09,45,16.30
2016,06,17,09,46,16.30
2016,06,17,09,47,16.40
2016,06,17,09,48,16.40
2016,06,17,09,49,16.40
2016,06,17,09,50,16.40
2016,06,17,09,51,16.40
2016,06,17,09,52,16.30
2016,06,17,09,53,16.40
2016,06,17,09,54,16.50
2016,06,17,09,55,16.60
2016,06,17,09,56,16.60
2016,06,17,09,57,16.50
2016,06,17,09,58,16.40
2016,06,17,09,59,16.40
2016,06,17,10,00,16.40
2016,06,17,10,01,16.30
2016,06,17,10,02,16.30
2016,06,17,10,03,16.40
2016,06,17,10,04,16.50
2016,06,17,10,05,16.60
2016,06,17,10,06,16.60
2016,06,17,10,07,16.60
2016,06,17,10,08,16.70
2016,06,17,10,09,16.70
2016,06,17,10,10,16.60
2016,06,17,10,11,16.60
2016,06,17,10,12,16.60
2016,06,17,10,13,16.60
2016,06,17,10,14,16.70
2016,06,17,10,15,16.80
2016,06,17,10,16,16.80
2016,06,17,10,17,16.90
2016,06,17,10,18,17.00
2016,06,17,10,19,17.00
2016,06,17,10,20,17.00
2016,06,17,10,21,17.00
2016,06,17,10,22,16.90
2016,06,17,10,23,16.80
2016,06,17,10,24,16.70
2016,06,17,10,25,16.70
2016,06,17,10,26,16.70
2016,06,17,10,27,16.90
2016,06,17,10,28,16.90
2016,06,17,10,29,17.00
2016,06,17,10,30,17.10
2016,06,17,10,31,17.10
2016,06,17,10,32,17.20
2016,06,17,10,33,17.20
2016,06,17,10,34,17.20
2016,06,17,10,35,17.20
2016,06,17,10,36,17.20
2016,06,17,10,37,17.30
2016,06,17,10,38,17.20
2016,06,17,10,39,17.10
2016,06,17,10,40,17.10
2016,06,17,10,41,17.10
2016,06,17,10,42,17.00
2016,06,17,10,43,17.00
2016,06,17,10,44,17.00
2016,06,17,10,45,17.00
2016,06,17,10,46,17.00
2016,06,17,10,47,17.20
2016,06,17,10,48,17.40
2016,06,17,10,49,17.50
2016,06,17,10,50,17.60
2016,06,17,10,51,17.60
2016,06,17,10,52,17.50
2016,06,17,10,53,17.50
2016,06,17,10,54,17.50
2016,06,17,10,55,17.60
2016,06,17,10,56,17.40
2016,06,17,10,57,17.30
2016,06,17,10,58,17.30
2016,06,17,10,59,17.30
2016,06,17,11,00,17.30
2016,06,17,11,01,17.30
2016,06,17,11,02,17.40
2016,06,17,11,03,17.40
2016,06,17,11,04,17.50
2016,06,17,11,05,17.40
2016,06,17,11,06,17.30
2016,06,17,11,07,17.40
2016,06,17,11,08,17.50
2016,06,17,11,09,17.50
2016,06,17,11,10,17.50
2016,06,17,11,11,17.60
2016,06,17,11,12,17.60
2016,06,17,11,13,17.70
2016,06,17,11,14,17.70
2016,06,17,11,15,17.80
2016,06,17,11,16,17.80
2016,06,17,11,17,17.70
2016,06,17,11,18,17.60
2016,06,17,11,19,17.50
2016,06,17,11,20,17.60
2016,06,17,11,21,17.60
2016,06,17,11,22,17.50
2016,06,17,11,23,17.50
2016,06,17,11,24,17.50
2016,06,17,11,25,17.50
2016,06,17,11,26,17.50
2016,06,17,11,27,17.50
2016,06,17,11,28,17.50
2016,06,17,11,29,17.60
2016,06,17,11,30,17.80
2016,06,17,11,31,18.00
2016,06,17,11,32,18.20
2016,06,17,11,33,18.40
2016,06,17,11,34,18.40
2016,06,17,11,35,18.30
2016,06,17,11,36,18.50
2016,06,17,11,37,18.60
2016,06,17,11,38,18.70
2016,06,17,11,39,18.70
2016,06,17,11,40,18.60
2016,06,17,11,41,18.60
2016,06,17,11,42,18.40
2016,06,17,11,43,18.30
2016,06,17,11,44,18.30
2016,06,17,11,45,18.40
2016,06,17,11,46,18.60
2016,06,17,11,47,18.60
2016,06,17,11,48,18.50
2016,06,17,11,49,18.40
2016,06,17,11,50,18.30
2016,06,17,11,51,18.30
2016,06,17,11,52,18.40
2016,06,17,11,53,18.50
2016,06,17,11,54,18.40
2016,06,17,11,55,18.40
2016,06,17,11,56,18.50
2016,06,17,11,57,18.40
2016,06,17,11,58,18.30
2016,06,17,11,59,18.20
2016,06,17,12,00,18.20
2016,06,17,12,01,18.20
2016,06,17,12,02,18.20
2016,06,17,12,03,18.20
2016,06,17,12,04,18.20
2016,06,17,12,05,18.30
2016,06,17,12,06,18.40
2016,06,17,12,07,18.60
2016,06,17,12,08,18.60
2016,06,17,12,09,18.50
2016,06,17,12,10,18.50
2016,06,17,12,11,18.60
2016,06,17,12,12,18.70
2016,06,17,12,13,18.70
2016,06,17,12,14,18.70
2016,06,17,12,15,18.70
2016,06,17,12,16,18.60
2016,06,17,12,17,18.50
2016,06,17,12,18,18.50
2016,06,17,12,19,18.60
2016,06,17,12,20,18.80
2016,06,17,12,21,18.90
2016,06,17,12,22,18.90
2016,06,17,12,23,19.00
2016,06,17,12,24,19.10
2016,06,17,12,25,19.10
2016,06,17,12,26,19.10
2016,06,17,12,27,19.20
2016,06,17,12,28,19.30
2016,06,17,12,29,19.30
2016,06,17,12,30,19.10
2016,06,17,12,31,19.00
2016,06,17,12,32,18.90
2016,06,17,12,33,18.90
2016,06,17,12,34,18.90
2016,06,17,12,35,18.90
2016,06,17,12,36,18.90
2016,06,17,12,37,18.90
2016,06,17,12,38,18.70
2016,06,17,12,39,18.60
2016,06,17,12,40,18.50
2016,06,17,12,41,18.60
2016,06,17,12,42,18.70
2016,06,17,12,43,18.80
2016,06,17,12,44,18.90
2016,06,17,12,45,18.90
2016,06,17,12,46,18.90
2016,06,17,12,47,18.90
2016,06,17,12,48,19.00
2016,06,17,12,49,19.10
2016,06,17,12,50,19.20
2016,06,17,12,51,19.10
2016,06,17,12,52,19.30
2016,06,17,12,53,19.30
2016,06,17,12,54,19.40
2016,06,17,12,55,19.40
2016,06,17,12,56,19.40
2016,06,17,12,57,19.50
2016,06,17,12,58,19.60
2016,06,17,12,59,19.70
2016,06,17,13,00,19.80
2016,06,17,13,01,19.90
2016,06,17,13,02,19.90
2016,06,17,13,03,19.70
2016,06,17,13,04,19.80
2016,06,17,13,05,19.80
2016,06,17,13,06,19.70
2016,06,17,13,07,19.60
2016,06,17,13,08,19.50
2016,06,17,13,09,19.60
2016,06,17,13,10,19.60
2016,06,17,13,11,19.60
2016,06,17,13,12,19.70
2016,06,17,13,13,19.80
2016,06,17,13,14,19.70
2016,06,17,13,15,19.70
2016,06,17,13,16,19.80
2016,06,17,13,17,19.90
2016,06,17,13,18,19.90
2016,06,17,13,19,19.80
2016,06,17,13,20,19.70
2016,06,17,13,21,19.60
2016,06,17,13,22,19.50
2016,06,17,13,23,19.40
2016,06,17,13,24,19.40
2016,06,17,13,25,19.30
2016,06,17,13,26,19.40
2016,06,17,13,27,19.40
2016,06,17,13,28,19.50
2016,06,17,13,29,19.60
2016,06,17,13,30,19.80
2016,06,17,13,31,19.90
2016,06,17,13,32,19.90
2016,06,17,13,33,19.90
2016,06,17,13,34,20.10
2016,06,17,13,35,20.20
2016,06,17,13,36,20.20
2016,06,17,13,37,20.20
2016,06,17,13,38,20.10
2016,06,17,13,39,20.10
2016,06,17,13,40,20.10
2016,06,17,13,41,20.10
2016,06,17,13,42,20.20
2016,06,17,13,43,20.10
2016,06,17,13,44,20.00
2016,06,17,13,45,19.80
2016,06,17,13,46,19.90
2016,06,17,13,47,20.10
2016,06,17,13,48,20.20
2016,06,17,13,49,20.30
2016,06,17,13,50,20.20
2016,06,17,13,51,20.20
2016,06,17,13,52,20.20
2016,06,17,13,53,20.20
2016,06,17,13,54,20.20
2016,06,17,13,55,20.10
2016,06,17,13,56,19.90
2016,06,17,13,57,19.90
2016,06,17,13,58,19.90
2016,06,17,13,59,20.00
2016,06,17,14,00,20.00
2016,06,17,14,01,20.10
2016,06,17,14,02,20.20
2016,06,17,14,03,20.20
2016,06,17,14,04,20.10
2016,06,17,14,05,20.10
2016,06,17,14,06,19.90
2016,06,17,14,07,19.90
2016,06,17,14,08,20.10
2016,06,17,14,09,20.10
2016,06,17,14,10,20.30
2016,06,17,14,11,20.40
2016,06,17,14,12,20.50
2016,06,17,14,13,20.60
2016,06,17,14,14,20.50
2016,06,17,14,15,20.50
2016,06,17,14,16,20.60
2016,06,17,14,17,20.60
2016,06,17,14,18,20.60
2016,06,17,14,19,20.70
2016,06,17,14,20,20.80
2016,06,17,14,21,20.80
2016,06,17,14,22,20.90
2016,06,17,14,23,20.90
2016,06,17,14,24,20.90
2016,06,17,14,25,21.00
2016,06,17,14,26,20.90
2016,06,17,14,27,20.80
2016,06,17,14,28,20.60
2016,06,17,14,29,20.50
2016,06,17,14,30,20.50
2016,06,17,14,31,20.40
2016,06,17,14,32,20.50
2016,06,17,14,33,20.50
2016,06,17,14,34,20.60
2016,06,17,14,35,20.80
2016,06,17,14,36,20.90
2016,06,17,14,37,20.80
2016,06,17,14,38,20.80
2016,06,17,14,39,20.90
2016,06,17,14,40,21.00
2016,06,17,14,41,21.10
2016,06,17,14,42,21.00
2016,06,17,14,43,21.00
2016,06,17,14,44,20.90
2016,06,17,14,45,21.00
2016,06,17,14,46,21.10
2016,06,17,14,47,21.00
2016,06,17,14,48,20.80
2016,06,17,14,49,20.60
2016,06,17,14,50,20.60
2016,06,17,14,51,20.50
2016,06,17,14,52,20.40
2016,06,17,14,53,20.40
2016,06,17,14,54,20.30
2016,06,17,14,55,20.30
2016,06,17,14,56,20.30
2016,06,17,14,57,20.30
2016,06,17,14,58,20.30
2016,06,17,14,59,20.30
2016,06,17,15,00,20.20
2016,06,17,15,01,20.10
2016,06,17,15,02,20.20
2016,06,17,15,03,20.20
2016,06,17,15,04,20.20
2016,06,17,15,05,20.20
2016,06,17,15,06,20.20
2016,06,17,15,07,20.40
2016,06,17,15,08,20.50
2016,06,17,15,09,20.50
2016,06,17,15,10,20.50
2016,06,17,15,11,20.50
2016,06,17,15,12,20.50
2016,06,17,15,13,20.40
2016,06,17,15,14,20.40
2016,06,17,15,15,20.40
2016,06,17,15,16,20.30
2016,06,17,15,17,20.50
2016,06,17,15,18,20.60
2016,06,17,15,19,20.70
2016,06,17,15,20,20.70
2016,06,17,15,21,20.70
2016,06,17,15,22,20.80
2016,06,17,15,23,20.80
2016,06,17,15,24,20.90
2016,06,17,15,25,20.70
2016,06,17,15,26,20.60
2016,06,17,15,27,20.50
2016,06,17,15,28,20.40
2016,06,17,15,29,20.50
2016,06,17,15,30,20.50
2016,06,17,15,31,20.50
2016,06,17,15,32,20.40
2016,06,17,15,33,20.40
2016,06,17,15,34,20.40
2016,06,17,15,35,20.40
2016,06,17,15,36,20.50
2016,06,17,15,37,20.50
2016,06,17,15,38,20.60
2016,06,17,15,39,20.60
2016,06,17,15,40,20.60
2016,06,17,15,41,20.60
2016,06,17,15,42,20.60
2016,06,17,15,43,20.50
2016,06,17,15,44,20.50
2016,06,17,15,45,20.50
2016,06,17,15,46,20.50
2016,06,17,15,47,20.50
2016,06,17,15,48,20.40
2016,06,17,15,49,20.40
2016,06,17,15,50,20.40
2016,06,17,15,51,20.50
2016,06,17,15,52,20.50
2016,06,17,15,53,20.50
2016,06,17,15,54,20.50
2016,06,17,15,55,20.60
2016,06,17,15,56,20.70
2016,06,17,15,57,20.70
2016,06,17,15,58,20.80
2016,06,17,15,59,20.80
2016,06,17,16,00,20.80
2016,06,17,16,01,20.80
2016,06,17,16,02,20.90
2016,06,17,16,03,20.90
2016,06,17,16,04,20.90
2016,06,17,16,05,20.80
2016,06,17,16,06,20.80
2016,06,17,16,07,20.90
2016,06,17,16,08,21.00
2016,06,17,16,09,21.10
2016,06,17,16,10,21.10
2016,06,17,16,11,21.00
2016,06,17,16,12,20.80
2016,06,17,16,13,20.80
2016,06,17,16,14,20.70
2016,06,17,16,15,20.70
2016,06,17,16,16,20.60
2016,06,17,16,17,20.60
2016,06,17,16,18,20.70
2016,06,17,16,19,20.70
2016,06,17,16,20,20.70
2016,06,17,16,21,20.70
2016,06,17,16,22,20.70
2016,06,17,16,23,20.70
2016,06,17,16,24,20.80
2016,06,17,16,25,20.80
2016,06,17,16,26,20.80
2016,06,17,16,27,20.80
2016,06,17,16,28,20.70
2016,06,17,16,29,20.60
2016,06,17,16,30,20.50
2016,06,17,16,31,20.50
2016,06,17,16,32,20.60
2016,06,17,16,33,20.70
2016,06,17,16,34,20.80
2016,06,17,16,35,20.90
2016,06,17,16,36,21.00
2016,06,17,16,37,20.90
2016,06,17,16,38,20.80
2016,06,17,16,39,20.70
2016,06,17,16,40,20.70
2016,06,17,16,41,20.60
2016,06,17,16,42,20.50
2016,06,17,16,43,20.50
2016,06,17,16,44,20.40
2016,06,17,16,45,20.40
2016,06,17,16,46,20.40
2016,06,17,16,47,20.30
2016,06,17,16,48,20.30
2016,06,17,16,49,20.30
2016,06,17,16,50,20.30
2016,06,17,16,51,20.20
2016,06,17,16,52,20.20
2016,06,17,16,53,20.20
2016,06,17,16,54,20.10
2016,06,17,16,55,20.00
2016,06,17,16,56,19.90
2016,06,17,16,57,19.90
2016,06,17,16,58,19.90
2016,06,17,16,59,19.90
2016,06,17,17,00,19.90
2016,06,17,17,01,19.80
2016,06,17,17,02,19.80
2016,06,17,17,03,19.80
2016,06,17,17,04,19.70
2016,06,17,17,05,19.60
2016,06,17,17,06,19.60
2016,06,17,17,07,19.60
2016,06,17,17,08,19.60
2016,06,17,17,09,19.70
2016,06,17,17,10,19.70
2016,06,17,17,11,19.70
2016,06,17,17,12,19.70
2016,06,17,17,13,19.70
2016,06,17,17,14,19.70
2016,06,17,17,15,19.80
2016,06,17,17,16,19.80
2016,06,17,17,17,19.80
2016,06,17,17,18,19.90
2016,06,17,17,19,19.90
2016,06,17,17,20,19.90
2016,06,17,17,21,19.90
2016,06,17,17,22,19.90
2016,06,17,17,23,19.90
2016,06,17,17,24,20.10
2016,06,17,17,25,20.10
2016,06,17,17,26,20.10
2016,06,17,17,27,20.20
2016,06,17,17,28,20.20
2016,06,17,17,29,20.20
2016,06,17,17,30,20.20
2016,06,17,17,31,20.20
2016,06,17,17,32,20.20
2016,06,17,17,33,20.20
2016,06,17,17,34,20.20